Погода в Смаре

Марокко     26°43′06″N   11°38′15″W
В апреле 2022 года жителям России запретили посещать сайт meteo.paraplan.net по решению Генеральной прокуратуры. Аудитория сайта уменьшилась в 10 раз. Владельцы сайта не видят смысла в поддержке погодного сервера в таких условиях. Сайт будет закрыт в октябре.
темп.,
°C
ветер,
м/с
пор.,
м/с
влажн.,
%
обл.,
%
осадки,
мм/ч
давл.,
гПа
погр.,
м
3 октября, пн
пн301:00+26сз22250 0.0 101616
04:00+24ссз11340 0.0 101611
07:00+23всв113325 0.0 101711
10:00+27всв1225100 0.0 101815
13:00+34всв221655 0.0 1018600
16:00+36св1216100 0.0 1015539
19:00+34ссз331833 0.0 101529
22:00+31с472141 0.0 101789
4 октября, вт
вт401:00+27ссв58295 0.0 1016117
04:00+26ссв33295 0.0 101534
07:00+25всв33287 0.0 101524
10:00+30св47205 0.0 1016277
13:00+38всв56145 0.0 10151377
16:00+40ссв54125 0.0 10123314
19:00+36с1113153 0.0 1013534
22:00+30ссв8152038 0.0 1016326
5 октября, ср
ср501:00+29ссв6132189 0.0 1016327
04:00+26ссв51124100 0.0 1015247
07:00+24ссв4830100 0.0 1016145
10:00+27ссв6928100 0.0 1017440
13:00+33ссв81015100 0.0 10161016
16:00+34с91012100 0.0 10141266
19:00+30с81020100 0.0 1015659
22:00+24с51042100 0.0 1018415
6 октября, чт
чт601:00+22с41057100 0.0 1017365
04:00+20с51165100 0.0 1016343
07:00+19ссз4773100 0.0 1016204
10:00+21с6963100 0.0 1016509
13:00+27с7835100 0.0 1015931
16:00+31с7730100 0.0 10111297
19:00+27ссз78390 0.0 1012637
22:00+22ссз610661 0.0 1014352
7 октября, пт
пт701:00+19сз47856 0.0 1014267
04:00+18сз46936 0.0 1012154
07:00+18сз36957 0.0 1012125
10:00+21ссз56741 0.0 1014523
13:00+28ссз55444 0.0 10121010
16:00+31сз66345 0.0 10091374
19:00+28сз55435 0.0 1010581
22:00+23ссз69653 0.0 1013308